User: anonymous   Login
Location: Unspecified
(0.0000°N, 0.0000°E)
Time: 10:32:29
(UTC+02:00)
Language:

Cosmos 1833 Rocket - Orbit

View from above orbital plane
View from above orbital plane
View from above satellite
View from above satellite

Ground track
Ground track

The orbit data is extracted from the following two-line orbital elements,

1 17590U 87027B   17113.90607214 -.00000223 +00000-0 -87497-4 0  9996
2 17590 071.0023 264.2748 0004493 359.9812 000.1310 14.16739304556208
Epoch (UTC): 23 April 2017 21:44:44
Eccentricity: 0.0004493
inclination: 71.0023°
perigee height: 833 km
apogee height: 839 km
right ascension of ascending node: 264.2748°
argument of perigee: 359.9812°
revolutions per day: 14.16739304
mean anomaly at epoch: 0.1310°
orbit number at epoch: 55620

The dashed part of the orbit path shows where the satellite is in the earth's shadow,  

DLR